TimeEDT,TemperatureF,Dew PointF,Humidity,Sea Level PressureIn,VisibilityMPH,Wind Direction,Wind SpeedMPH,Gust SpeedMPH,PrecipitationIn,Events,Conditions,WindDirDegrees,DateUTC
12:15 AM,66.2,60.8,83,30.20,10.0,SE,4.6,-,N/A,,Clear,130,2013-06-21 04:15:00
12:35 AM,66.2,60.8,83,30.20,10.0,ESE,4.6,-,N/A,,Clear,120,2013-06-21 04:35:00
12:55 AM,66.2,60.8,83,30.20,10.0,ESE,3.5,-,N/A,,Clear,120,2013-06-21 04:55:00
1:15 AM,64.4,60.8,88,30.20,10.0,ESE,3.5,-,N/A,,Clear,110,2013-06-21 05:15:00
1:35 AM,66.2,59.0,78,30.20,10.0,Calm,Calm,-,N/A,,Clear,0,2013-06-21 05:35:00
1:55 AM,66.2,59.0,78,30.20,10.0,Calm,Calm,-,N/A,,Clear,0,2013-06-21 05:55:00
2:15 AM,66.2,59.0,78,30.20,10.0,Calm,Calm,-,N/A,,Clear,0,2013-06-21 06:15:00
2:35 AM,66.2,59.0,78,30.20,10.0,Calm,Calm,-,N/A,,Clear,0,2013-06-21 06:35:00
2:55 AM,64.4,60.8,88,30.20,10.0,Calm,Calm,-,N/A,,Clear,0,2013-06-21 06:55:00
3:15 AM,62.6,60.8,94,30.20,10.0,Calm,Calm,-,N/A,,Clear,0,2013-06-21 07:15:00
3:35 AM,64.4,60.8,88,30.20,10.0,WSW,4.6,-,N/A,,Clear,250,2013-06-21 07:35:00
3:55 AM,64.4,59.0,83,30.20,10.0,Calm,Calm,-,N/A,,Clear,0,2013-06-21 07:55:00
4:15 AM,64.4,59.0,83,30.20,10.0,Calm,Calm,-,N/A,,Clear,0,2013-06-21 08:15:00
4:35 AM,62.6,59.0,88,30.20,10.0,Calm,Calm,-,N/A,,Clear,0,2013-06-21 08:35:00
4:55 AM,62.6,59.0,88,30.20,10.0,East,3.5,-,N/A,,Clear,90,2013-06-21 08:55:00
5:15 AM,62.6,59.0,88,30.20,10.0,Calm,Calm,-,N/A,,Clear,0,2013-06-21 09:15:00
5:35 AM,62.6,59.0,88,30.20,10.0,Calm,Calm,-,N/A,,Clear,0,2013-06-21 09:35:00
5:55 AM,62.6,59.0,88,30.21,10.0,Calm,Calm,-,N/A,,Clear,0,2013-06-21 09:55:00
6:15 AM,62.6,59.0,88,30.21,10.0,SE,4.6,-,N/A,,Clear,130,2013-06-21 10:15:00
6:35 AM,62.6,59.0,88,30.22,10.0,ESE,4.6,-,N/A,,Clear,120,2013-06-21 10:35:00
6:55 AM,62.6,59.0,88,30.22,10.0,ESE,4.6,-,N/A,,Clear,120,2013-06-21 10:55:00
7:15 AM,64.4,60.8,88,30.22,10.0,SSE,3.5,-,N/A,,Clear,160,2013-06-21 11:15:00
7:35 AM,66.2,60.8,83,30.23,10.0,Calm,Calm,-,N/A,,Clear,0,2013-06-21 11:35:00
7:55 AM,66.2,60.8,83,30.23,10.0,Calm,Calm,-,N/A,,Clear,0,2013-06-21 11:55:00
8:15 AM,68.0,62.6,83,30.23,10.0,Calm,Calm,-,N/A,,Clear,0,2013-06-21 12:15:00
8:35 AM,69.8,64.4,83,30.23,10.0,Calm,Calm,-,N/A,,Clear,0,2013-06-21 12:35:00
8:55 AM,71.6,64.4,78,30.23,10.0,Calm,Calm,-,N/A,,Clear,0,2013-06-21 12:55:00
9:15 AM,73.4,64.4,73,30.24,10.0,SSW,5.8,-,N/A,,Clear,210,2013-06-21 13:15:00
9:35 AM,75.2,66.2,73,30.24,10.0,SW,4.6,-,N/A,,Clear,220,2013-06-21 13:35:00
9:55 AM,75.2,66.2,73,30.24,10.0,SSW,4.6,-,N/A,,Clear,200,2013-06-21 13:55:00
10:15 AM,77.0,66.2,69,30.24,10.0,SSW,4.6,-,N/A,,Clear,210,2013-06-21 14:15:00
10:35 AM,77.0,64.4,65,30.24,10.0,SW,5.8,-,N/A,,Clear,230,2013-06-21 14:35:00
10:55 AM,78.8,64.4,61,30.24,10.0,SW,9.2,-,N/A,,Clear,230,2013-06-21 14:55:00
11:15 AM,78.8,66.2,65,30.24,10.0,WSW,5.8,-,N/A,,Clear,240,2013-06-21 15:15:00
11:35 AM,78.8,64.4,61,30.24,10.0,WSW,4.6,-,N/A,,Scattered Clouds,250,2013-06-21 15:35:00
11:55 AM,80.6,64.4,58,30.25,10.0,SW,9.2,-,N/A,,Scattered Clouds,230,2013-06-21 15:55:00
12:15 PM,82.4,66.2,58,30.25,10.0,WSW,6.9,-,N/A,,Scattered Clouds,240,2013-06-21 16:15:00
12:35 PM,82.4,64.4,54,30.25,10.0,West,3.5,-,N/A,,Scattered Clouds,260,2013-06-21 16:35:00
12:55 PM,82.4,64.4,54,30.25,10.0,SW,6.9,-,N/A,,Mostly Cloudy,230,2013-06-21 16:55:00
1:15 PM,82.4,64.4,54,30.25,10.0,WSW,8.1,-,N/A,,Mostly Cloudy,240,2013-06-21 17:15:00
1:35 PM,82.4,64.4,54,30.25,10.0,SSW,4.6,-,N/A,,Mostly Cloudy,200,2013-06-21 17:35:00
1:55 PM,80.6,64.4,58,30.25,10.0,Calm,Calm,-,N/A,,Mostly Cloudy,0,2013-06-21 17:55:00
2:15 PM,84.2,64.4,51,30.24,10.0,SSW,5.8,-,N/A,,Mostly Cloudy,210,2013-06-21 18:15:00
2:35 PM,84.2,64.4,51,30.23,10.0,SSW,5.8,-,N/A,,Scattered Clouds,210,2013-06-21 18:35:00
2:55 PM,84.2,62.6,48,30.22,10.0,SSE,5.8,-,N/A,,Scattered Clouds,160,2013-06-21 18:55:00
3:15 PM,84.2,64.4,51,30.22,10.0,West,5.8,-,N/A,,Scattered Clouds,280,2013-06-21 19:15:00
3:35 PM,84.2,62.6,48,30.22,10.0,WSW,4.6,-,N/A,,Scattered Clouds,250,2013-06-21 19:35:00
3:55 PM,84.2,62.6,48,30.21,10.0,SW,5.8,-,N/A,,Scattered Clouds,230,2013-06-21 19:55:00
4:15 PM,84.2,62.6,48,30.20,10.0,WSW,3.5,-,N/A,,Clear,250,2013-06-21 20:15:00
4:35 PM,84.2,64.4,51,30.19,10.0,WSW,4.6,-,N/A,,Clear,250,2013-06-21 20:35:00
4:55 PM,84.2,62.6,48,30.18,10.0,Calm,Calm,-,N/A,,Clear,0,2013-06-21 20:55:00
5:15 PM,86.0,60.8,43,30.18,10.0,SSW,3.5,-,N/A,,Scattered Clouds,210,2013-06-21 21:15:00
5:35 PM,84.2,60.8,45,30.17,10.0,West,4.6,-,N/A,,Clear,270,2013-06-21 21:35:00
5:55 PM,86.0,62.6,45,30.17,10.0,SW,4.6,-,N/A,,Clear,230,2013-06-21 21:55:00
6:15 PM,86.0,62.6,45,30.16,10.0,SW,4.6,-,N/A,,Clear,220,2013-06-21 22:15:00
6:35 PM,84.2,64.4,51,30.15,10.0,South,5.8,-,N/A,,Clear,180,2013-06-21 22:35:00
6:55 PM,84.2,64.4,51,30.15,10.0,SSE,4.6,-,N/A,,Clear,160,2013-06-21 22:55:00
7:15 PM,84.2,62.6,48,30.15,10.0,SSE,3.5,-,N/A,,Clear,150,2013-06-21 23:15:00
7:35 PM,84.2,62.6,48,30.16,10.0,SW,4.6,-,N/A,,Clear,230,2013-06-21 23:35:00
7:55 PM,82.4,62.6,51,30.17,10.0,SW,3.5,-,N/A,,Clear,230,2013-06-21 23:55:00
8:15 PM,82.4,62.6,51,30.16,10.0,SW,3.5,-,N/A,,Clear,220,2013-06-22 00:15:00
8:35 PM,80.6,62.6,54,30.17,10.0,Calm,Calm,-,N/A,,Clear,0,2013-06-22 00:35:00
8:55 PM,80.6,62.6,54,30.17,10.0,Calm,Calm,-,N/A,,Clear,0,2013-06-22 00:55:00
9:15 PM,78.8,62.6,57,30.17,10.0,SW,3.5,-,N/A,,Clear,220,2013-06-22 01:15:00
9:35 PM,78.8,64.4,61,30.18,7.0,Calm,Calm,-,N/A,,Clear,0,2013-06-22 01:35:00
9:55 PM,77.0,64.4,65,30.19,10.0,Calm,Calm,-,N/A,,Clear,0,2013-06-22 01:55:00
10:15 PM,73.4,64.4,73,30.19,10.0,South,3.5,-,N/A,,Clear,180,2013-06-22 02:15:00
10:35 PM,77.0,64.4,65,30.20,10.0,SSW,6.9,-,N/A,,Scattered Clouds,210,2013-06-22 02:35:00
10:55 PM,75.2,64.4,69,30.20,10.0,SSW,5.8,-,N/A,,Scattered Clouds,210,2013-06-22 02:55:00
11:15 PM,75.2,66.2,73,30.20,10.0,SW,4.6,-,N/A,,Clear,220,2013-06-22 03:15:00
11:35 PM,73.4,66.2,78,30.20,10.0,South,5.8,-,N/A,,Clear,190,2013-06-22 03:35:00
11:55 PM,73.4,66.2,78,30.20,10.0,Calm,Calm,-,N/A,,Clear,0,2013-06-22 03:55:00